| time (UTC) | temp C | wind direction | speed KPH | gust KPH | rain 1hr cm | rain 24hr cm | rain mn cm | humidity % | barometer mb |
| 20260504002049 | 6 | 175 | 0.0 | 9.7 | 0.00 | 0.00 | 0.00 | 90 | 1007.5 |
| 20260504001550 | 6 | 174 | 1.6 | 11.3 | 0.00 | 0.00 | 0.00 | 89 | 1007.5 |
| 20260504001047 | 6 | 173 | 3.2 | 11.3 | 0.00 | 0.00 | 0.00 | 89 | 1007.7 |
| 20260504000546 | 6 | 180 | 0.0 | 6.4 | 0.00 | 0.00 | 0.00 | 89 | 1007.8 |
| 20260504000038 | 6 | 180 | 0.0 | 6.4 | 0.00 | 0.00 | 0.00 | 88 | 1007.8 |
| 20260503235533 | 6 | 180 | 0.0 | 1.6 | 0.00 | 0.00 | 0.00 | 87 | 1007.7 |
| 20260503235033 | 6 | 180 | 0.0 | 8.0 | 0.00 | 0.00 | 0.00 | 87 | 1007.7 |
| 20260503234532 | 6 | 180 | 1.6 | 8.0 | 0.00 | 0.00 | 0.00 | 87 | 1007.8 |
| 20260503234034 | 6 | 180 | 0.0 | 3.2 | 0.00 | 0.00 | 0.00 | 86 | 1007.8 |
| 20260503233535 | 6 | 180 | 0.0 | 9.7 | 0.00 | 0.00 | 0.00 | 86 | 1007.9 |
| 20260503233030 | 6 | 180 | 1.6 | 9.7 | 0.00 | 0.00 | 0.00 | 86 | 1008.0 |
| 20260503232530 | 6 | 182 | 1.6 | 9.7 | 0.00 | 0.00 | 0.00 | 85 | 1007.9 |
| 20260503232029 | 6 | 184 | 0.0 | 9.7 | 0.00 | 0.00 | 0.00 | 84 | 1008.0 |
| 20260503231529 | 6 | 184 | 0.0 | 8.0 | 0.00 | 0.00 | 0.00 | 84 | 1008.0 |
| 20260503231029 | 6 | 183 | 0.0 | 9.7 | 0.00 | 0.00 | 0.00 | 84 | 1008.1 |
| 20260503230529 | 6 | 188 | 1.6 | 9.7 | 0.00 | 0.00 | 0.00 | 84 | 1008.1 |
| 20260503230028 | 6 | 213 | 0.0 | 9.7 | 0.00 | 0.00 | 0.00 | 84 | 1008.1 |
| 20260503225530 | 6 | 213 | 0.0 | 14.5 | 0.00 | 0.00 | 0.00 | 83 | 1008.3 |
| 20260503225028 | 6 | 168 | 0.0 | 14.5 | 0.00 | 0.00 | 0.00 | 82 | 1008.3 |
| 20260503224527 | 6 | 197 | 3.2 | 11.3 | 0.00 | 0.00 | 0.00 | 82 | 1008.3 |
| 20260503224026 | 7 | 172 | 0.0 | 11.3 | 0.00 | 0.00 | 0.00 | 83 | 1008.4 |
| 20260503223524 | 6 | 196 | 1.6 | 9.7 | 0.00 | 0.00 | 0.00 | 83 | 1008.4 |
| 20260503223024 | 6 | 197 | 1.6 | 9.7 | 0.00 | 0.00 | 0.00 | 84 | 1008.4 |
| 20260503222522 | 6 | 197 | 0.0 | 8.0 | 0.00 | 0.00 | 0.00 | 84 | 1008.5 |
| 20260503222024 | 6 | 197 | 0.0 | 6.4 | 0.00 | 0.00 | 0.00 | 83 | 1008.5 |
| 20260503221521 | 6 | 198 | 0.0 | 8.0 | 0.00 | 0.00 | 0.00 | 84 | 1008.6 |
| 20260503221020 | 6 | 198 | 1.6 | 8.0 | 0.00 | 0.00 | 0.00 | 84 | 1008.6 |
| 20260503220520 | 6 | 200 | 0.0 | 9.7 | 0.00 | 0.00 | 0.00 | 84 | 1008.7 |
| 20260503220019 | 6 | 200 | 1.6 | 9.7 | 0.00 | 0.00 | 0.00 | 84 | 1008.7 |
| 20260503215508 | 6 | 205 | 0.0 | 9.7 | 0.00 | 0.00 | 0.00 | 84 | 1008.8 |
| 20260503215008 | 6 | 206 | 1.6 | 9.7 | 0.00 | 0.00 | 0.00 | 84 | 1008.7 |
| 20260503214527 | 6 | 209 | 0.0 | 6.4 | 0.00 | 0.00 | 0.00 | 87 | 1008.8 |
| 20260503214009 | 6 | 209 | 0.0 | 6.4 | 0.00 | 0.00 | 0.00 | 85 | 1008.8 |
| 20260503213506 | 6 | 209 | 0.0 | 6.4 | 0.00 | 0.00 | 0.00 | 86 | 1008.9 |
| 20260503213007 | 6 | 210 | 0.0 | 8.0 | 0.00 | 0.00 | 0.00 | 86 | 1008.8 |
| 20260503212508 | 6 | 211 | 1.6 | 8.0 | 0.00 | 0.00 | 0.00 | 86 | 1008.9 |
| 20260503212004 | 5 | 213 | 0.0 | 6.4 | 0.00 | 0.00 | 0.00 | 85 | 1009.1 |
| 20260503211505 | 5 | 213 | 0.0 | 6.4 | 0.00 | 0.00 | 0.00 | 86 | 1009.0 |
| 20260503211004 | 5 | 213 | 0.0 | 6.4 | 0.00 | 0.00 | 0.00 | 85 | 1009.1 |
| 20260503210506 | 5 | 213 | 0.0 | 8.0 | 0.00 | 0.00 | 0.00 | 84 | 1009.1 |
| 20260503210003 | 5 | 214 | 1.6 | 11.3 | 0.00 | 0.00 | 0.00 | 84 | 1009.2 |
| 20260503205504 | 5 | 223 | 3.2 | 12.9 | 0.00 | 0.00 | 0.00 | 85 | 1009.3 |
| 20260503205002 | 5 | 229 | 1.6 | 12.9 | 0.00 | 0.00 | 0.00 | 85 | 1009.3 |
| 20260503204502 | 5 | 225 | 3.2 | 12.9 | 0.00 | 0.00 | 0.00 | 85 | 1009.3 |
| 20260503204001 | 5 | 234 | 1.6 | 12.9 | 0.00 | 0.00 | 0.00 | 85 | 1009.4 |
| 20260503203600 | 5 | 181 | 3.2 | 16.1 | 0.00 | 0.00 | 0.00 | 85 | 1009.4 |
| 20260503203100 | 5 | 217 | 4.8 | 16.1 | 0.00 | 0.00 | 0.00 | 84 | 1009.5 |
| 20260503202559 | 5 | 234 | 1.6 | 14.5 | 0.00 | 0.00 | 0.00 | 87 | 1009.5 |
| 20260503202101 | 5 | 229 | 3.2 | 14.5 | 0.00 | 0.00 | 0.00 | 85 | 1009.6 |
| 20260503201557 | 5 | 205 | 6.4 | 14.5 | 0.00 | 0.00 | 0.00 | 84 | 1009.7 |
| 20260503201056 | 6 | 223 | 1.6 | 12.9 | 0.00 | 0.00 | 0.00 | 84 | 1009.8 |
| 20260503200554 | 6 | 202 | 3.2 | 12.9 | 0.00 | 0.00 | 0.00 | 83 | 1009.8 |
| 20260503191544 | 7 | 217 | 0.0 | 9.7 | 0.00 | 0.00 | 0.00 | 78 | 1010.1 |
| 20260503191041 | 7 | 217 | 1.6 | 9.7 | 0.00 | 0.00 | 0.00 | 76 | 1010.1 |
| 20260503190538 | 7 | 217 | 0.0 | 3.2 | 0.00 | 0.00 | 0.00 | 75 | 1010.2 |
| 20260503190041 | 7 | 217 | 0.0 | 9.7 | 0.00 | 0.00 | 0.00 | 75 | 1010.2 |
| 20260503185538 | 7 | 217 | 0.0 | 9.7 | 0.00 | 0.00 | 0.00 | 72 | 1010.2 |
| 20260503185037 | 7 | 217 | 0.0 | 9.7 | 0.00 | 0.00 | 0.00 | 71 | 1010.3 |
| 20260503184543 | 7 | 229 | 1.6 | 9.7 | 0.00 | 0.00 | 0.00 | 67 | 1010.5 |
| 20260503184034 | 7 | 229 | 0.0 | 9.7 | 0.00 | 0.00 | 0.00 | 66 | 1010.5 |
| 20260503183533 | 8 | 209 | 1.6 | 14.5 | 0.00 | 0.00 | 0.00 | 66 | 1010.6 |
| 20260503183032 | 8 | 210 | 3.2 | 17.7 | 0.00 | 0.00 | 0.00 | 64 | 1010.7 |
| 20260503182533 | 8 | 254 | 4.8 | 17.7 | 0.00 | 0.00 | 0.00 | 59 | 1010.8 |
| 20260503182032 | 8 | 229 | 4.8 | 17.7 | 0.00 | 0.00 | 0.00 | 53 | 1010.8 |
| 20260503181531 | 9 | 144 | 4.8 | 20.9 | 0.00 | 0.00 | 0.00 | 48 | 1010.8 |
| 20260503181012 | 10 | 290 | 4.8 | 20.9 | 0.00 | 0.00 | 0.00 | 45 | 1010.8 |
| 20260503180512 | 10 | 245 | 4.8 | 12.9 | 0.00 | 0.00 | 0.00 | 46 | 1010.8 |
| 20260503180011 | 10 | 219 | 1.6 | 12.9 | 0.00 | 0.00 | 0.00 | 47 | 1010.9 |
| 20260503175509 | 10 | 173 | 4.8 | 12.9 | 0.00 | 0.00 | 0.00 | 48 | 1010.9 |
| 20260503175009 | 10 | 229 | 1.6 | 14.5 | 0.00 | 0.00 | 0.00 | 46 | 1010.9 |
| 20260503174515 | 10 | 191 | 6.4 | 12.9 | 0.00 | 0.00 | 0.00 | 44 | 1011.0 |
| 20260503174055 | 10 | 146 | 3.2 | 16.1 | 0.00 | 0.00 | 0.00 | 47 | 1011.0 |
| 20260503173555 | 10 | 159 | 1.6 | 16.1 | 0.00 | 0.00 | 0.00 | 47 | 1010.9 |
| 20260503173105 | 10 | 166 | 3.2 | 20.9 | 0.00 | 0.00 | 0.00 | 48 | 1011.1 |
| 20260503172556 | 10 | 167 | 1.6 | 20.9 | 0.00 | 0.00 | 0.00 | 48 | 1011.2 |
| 20260503172052 | 10 | 182 | 1.6 | 16.1 | 0.00 | 0.00 | 0.00 | 49 | 1011.2 |
| 20260503171553 | 10 | 166 | 3.2 | 11.3 | 0.00 | 0.00 | 0.00 | 50 | 1011.3 |
| 20260503171050 | 10 | 223 | 3.2 | 11.3 | 0.00 | 0.00 | 0.00 | 49 | 1011.4 |
| 20260503170549 | 10 | 180 | 3.2 | 12.9 | 0.00 | 0.00 | 0.00 | 50 | 1011.5 |
| 20260503150552 | 6 | 259 | 6.4 | 14.5 | 0.00 | 0.00 | 0.00 | 76 | 1012.9 |
| 20260503150103 | 6 | 220 | 4.8 | 17.7 | 0.00 | 0.00 | 0.00 | 75 | 1012.9 |
| 20260503131032 | 5 | 177 | 3.2 | 11.3 | 0.00 | 0.00 | 0.00 | 80 | 1013.4 |
| 20260503130513 | 5 | 231 | 1.6 | 11.3 | 0.00 | 0.00 | 0.00 | 80 | 1013.4 |
| 20260503110505 | 2 | 262 | 1.6 | 8.0 | 0.00 | 0.00 | 0.00 | 86 | 1013.7 |
| 20260503081532 | 2 | 257 | 8.0 | 19.3 | 0.00 | 0.00 | 0.00 | 80 | 1014.6 |
| 20260503081013 | 2 | 296 | 3.2 | 17.7 | 0.00 | 0.00 | 0.00 | 80 | 1014.5 |
| 20260503080512 | 2 | 229 | 6.4 | 17.7 | 0.00 | 0.00 | 0.00 | 80 | 1014.6 |
| 20260503072509 | 2 | 260 | 4.8 | 16.1 | 0.00 | 0.00 | 0.00 | 80 | 1014.6 |
| 20260503072008 | 2 | 263 | 4.8 | 17.7 | 0.00 | 0.00 | 0.00 | 81 | 1014.6 |
| 20260503071506 | 2 | 269 | 6.4 | 20.9 | 0.00 | 0.00 | 0.00 | 80 | 1014.6 |
| 20260503071004 | 2 | 286 | 9.7 | 20.9 | 0.00 | 0.00 | 0.00 | 80 | 1014.6 |
| 20260503070604 | 2 | 235 | 8.0 | 16.1 | 0.00 | 0.00 | 0.00 | 81 | 1014.6 |
| 20260503054604 | 2 | 242 | 8.0 | 17.7 | 0.00 | 0.03 | 0.00 | 82 | 1015.0 |
| 20260503054059 | 2 | 247 | 4.8 | 16.1 | 0.00 | 0.03 | 0.00 | 82 | 1015.0 |
| 20260503053558 | 2 | 234 | 6.4 | 16.1 | 0.00 | 0.03 | 0.00 | 81 | 1015.0 |
| 20260503053039 | 2 | 256 | 4.8 | 14.5 | 0.00 | 0.03 | 0.00 | 81 | 1015.0 |
| 20260503052538 | 2 | 265 | 6.4 | 20.9 | 0.00 | 0.03 | 0.00 | 80 | 1015.0 |
| 20260503052038 | 2 | 259 | 8.0 | 20.9 | 0.00 | 0.03 | 0.00 | 79 | 1015.1 |
| 20260503051539 | 3 | 244 | 6.4 | 17.7 | 0.00 | 0.03 | 0.00 | 80 | 1015.1 |
| 20260503051037 | 3 | 265 | 8.0 | 17.7 | 0.00 | 0.03 | 0.00 | 80 | 1015.1 |
| 20260503050535 | 3 | 262 | 6.4 | 17.7 | 0.00 | 0.03 | 0.00 | 80 | 1015.1 |
| 20260503050021 | 3 | 279 | 3.2 | 20.9 | 0.00 | 0.03 | 0.00 | 79 | 1015.2 |
| 20260503045523 | 3 | 246 | 6.4 | 20.9 | 0.00 | 0.03 | 0.00 | 79 | 1015.2 |
| 20260503045021 | 3 | 250 | 9.7 | 20.9 | 0.00 | 0.03 | 0.00 | 78 | 1015.2 |
| 20260503044523 | 3 | 268 | 3.2 | 17.7 | 0.00 | 0.03 | 0.00 | 77 | 1015.2 |
| 20260503044018 | 3 | 262 | 6.4 | 20.9 | 0.00 | 0.03 | 0.00 | 77 | 1015.2 |
| 20260503043517 | 3 | 259 | 4.8 | 19.3 | 0.00 | 0.03 | 0.00 | 77 | 1015.3 |
| 20260503043017 | 3 | 248 | 8.0 | 22.5 | 0.00 | 0.03 | 0.00 | 76 | 1015.3 |
| 20260503042521 | 3 | 245 | 4.8 | 22.5 | 0.00 | 0.03 | 0.00 | 76 | 1015.4 |
| 20260503042016 | 3 | 255 | 4.8 | 19.3 | 0.00 | 0.03 | 0.00 | 75 | 1015.3 |
| 20260503041516 | 3 | 275 | 3.2 | 19.3 | 0.00 | 0.03 | 0.00 | 74 | 1015.2 |
| 20260503041019 | 3 | 288 | 4.8 | 14.5 | 0.00 | 0.03 | 0.00 | 74 | 1015.3 |
| 20260503040515 | 3 | 273 | 4.8 | 19.3 | 0.00 | 0.03 | 0.00 | 74 | 1015.3 |
| 20260503040014 | 3 | 273 | 6.4 | 19.3 | 0.00 | 0.03 | 0.00 | 75 | 1015.3 |
| 20260503035513 | 3 | 248 | 4.8 | 19.3 | 0.00 | 0.03 | 0.00 | 75 | 1015.4 |
| 20260503035013 | 3 | 287 | 6.4 | 19.3 | 0.00 | 0.03 | 0.00 | 77 | 1015.5 |
| 20260503034512 | 3 | 240 | 4.8 | 19.3 | 0.00 | 0.03 | 0.00 | 77 | 1015.5 |
| 20260503034011 | 3 | 260 | 6.4 | 19.3 | 0.00 | 0.03 | 0.00 | 77 | 1015.5 |
| 20260503033514 | 3 | 246 | 6.4 | 20.9 | 0.00 | 0.03 | 0.00 | 76 | 1015.6 |
| 20260503033016 | 3 | 264 | 6.4 | 24.1 | 0.00 | 0.03 | 0.00 | 76 | 1015.5 |
| 20260503032510 | 3 | 228 | 6.4 | 17.7 | 0.00 | 0.03 | 0.00 | 76 | 1015.5 |
| 20260503032009 | 3 | 236 | 6.4 | 20.9 | 0.00 | 0.03 | 0.00 | 75 | 1015.6 |
| 20260503031508 | 3 | 257 | 9.7 | 24.1 | 0.00 | 0.03 | 0.00 | 74 | 1015.6 |
| 20260503031012 | 3 | 269 | 8.0 | 24.1 | 0.00 | 0.03 | 0.00 | 73 | 1015.6 |
| 20260503030507 | 3 | 266 | 9.7 | 22.5 | 0.00 | 0.03 | 0.00 | 73 | 1015.7 |
| 20260503030116 | 3 | 253 | 8.0 | 22.5 | 0.00 | 0.03 | 0.00 | 73 | 1015.7 |
| 20260503025549 | 3 | 279 | 6.4 | 20.9 | 0.00 | 0.03 | 0.00 | 74 | 1015.7 |
| 20260503025051 | 3 | 246 | 6.4 | 24.1 | 0.00 | 0.03 | 0.00 | 73 | 1015.7 |
| 20260503024547 | 3 | 250 | 6.4 | 24.1 | 0.00 | 0.03 | 0.00 | 73 | 1015.7 |
| 20260503024047 | 3 | 288 | 9.7 | 22.5 | 0.00 | 0.03 | 0.00 | 73 | 1015.8 |
| 20260503023549 | 3 | 289 | 6.4 | 22.5 | 0.00 | 0.03 | 0.00 | 73 | 1015.8 |
| 20260503023030 | 3 | 297 | 6.4 | 24.1 | 0.00 | 0.03 | 0.00 | 74 | 1015.8 |
| 20260503022526 | 3 | 345 | 8.0 | 24.1 | 0.00 | 0.03 | 0.00 | 74 | 1016.0 |
| 20260503022026 | 3 | 269 | 6.4 | 30.6 | 0.00 | 0.03 | 0.00 | 74 | 1016.0 |
| 20260503021528 | 3 | 235 | 6.4 | 30.6 | 0.00 | 0.03 | 0.00 | 74 | 1015.9 |
| 20260503021024 | 3 | 261 | 6.4 | 24.1 | 0.00 | 0.03 | 0.00 | 74 | 1016.0 |
| 20260503020523 | 3 | 280 | 6.4 | 24.1 | 0.00 | 0.03 | 0.00 | 74 | 1016.0 |
| 20260503020013 | 3 | 254 | 8.0 | 22.5 | 0.00 | 0.03 | 0.00 | 74 | 1015.8 |
| 20260503015512 | 3 | 265 | 6.4 | 22.5 | 0.00 | 0.03 | 0.00 | 74 | 1015.8 |
| 20260503015012 | 3 | 296 | 6.4 | 20.9 | 0.00 | 0.03 | 0.00 | 74 | 1015.8 |
| 20260503014511 | 3 | 235 | 11.3 | 22.5 | 0.00 | 0.10 | 0.00 | 74 | 1015.8 |
| 20260503014010 | 3 | 293 | 9.7 | 22.5 | 0.00 | 0.10 | 0.00 | 74 | 1015.9 |
| 20260503013510 | 3 | 276 | 6.4 | 24.1 | 0.00 | 0.10 | 0.00 | 75 | 1015.9 |
| 20260503013009 | 3 | 278 | 9.7 | 24.1 | 0.00 | 0.10 | 0.00 | 75 | 1015.9 |
| 20260503012509 | 3 | 243 | 4.8 | 29.0 | 0.00 | 0.10 | 0.00 | 76 | 1015.9 |
| 20260503012009 | 3 | 303 | 9.7 | 29.0 | 0.00 | 0.10 | 0.00 | 75 | 1016.0 |
| 20260503011508 | 3 | 302 | 9.7 | 24.1 | 0.00 | 0.10 | 0.00 | 76 | 1015.9 |
| 20260503011010 | 3 | 306 | 4.8 | 24.1 | 0.00 | 0.10 | 0.00 | 75 | 1015.9 |
| 20260503010509 | 3 | 284 | 9.7 | 24.1 | 0.00 | 0.10 | 0.00 | 75 | 1015.7 |
| 20260503010007 | 3 | 227 | 9.7 | 22.5 | 0.00 | 0.10 | 0.00 | 75 | 1015.7 |
| 20260503005505 | 3 | 277 | 8.0 | 20.9 | 0.00 | 0.10 | 0.00 | 76 | 1015.8 |
| 20260503005004 | 3 | 273 | 9.7 | 29.0 | 0.00 | 0.10 | 0.00 | 75 | 1016.0 |
| 20260503004503 | 3 | 315 | 11.3 | 29.0 | 0.00 | 0.10 | 0.00 | 76 | 1015.9 |
| 20260503004004 | 3 | 306 | 9.7 | 25.7 | 0.00 | 0.10 | 0.00 | 76 | 1015.9 |
| 20260503003502 | 3 | 323 | 12.9 | 25.7 | 0.00 | 0.10 | 0.00 | 76 | 1015.8 |
| 20260503003002 | 3 | 236 | 8.0 | 25.7 | 0.00 | 0.10 | 0.00 | 78 | 1015.9 |
| 20260503002503 | 3 | 254 | 6.4 | 25.7 | 0.00 | 0.10 | 0.00 | 79 | 1015.8 |